| time (UTC) | temp C | wind direction | speed KPH | gust KPH | rain 1hr cm | rain 24hr cm | rain mn cm | humidity % | barometer mb |
| 20260504081519 | 16 | 152 | 4.8 | 14.5 | 0.00 | 0.00 | 0.00 | 63 | 1016.1 |
| 20260504070108 | 17 | 163 | 4.8 | 9.7 | 0.00 | 0.00 | 0.00 | 62 | 1017.2 |
| 20260504044533 | 18 | 138 | 6.4 | 14.5 | 0.00 | 0.00 | 0.00 | 59 | 1018.3 |
| 20260504043044 | 18 | 157 | 6.4 | 16.1 | 0.00 | 0.00 | 0.00 | 58 | 1018.5 |
| 20260504041536 | 18 | 155 | 9.7 | 17.7 | 0.00 | 0.00 | 0.00 | 58 | 1018.5 |
| 20260504040031 | 18 | 153 | 8.0 | 14.5 | 0.00 | 0.00 | 0.00 | 57 | 1018.6 |
| 20260504034531 | 18 | 157 | 9.7 | 19.3 | 0.00 | 0.00 | 0.00 | 55 | 1018.6 |
| 20260504033036 | 19 | 160 | 11.3 | 17.7 | 0.00 | 0.00 | 0.00 | 54 | 1018.6 |
| 20260504031529 | 19 | 145 | 11.3 | 19.3 | 0.00 | 0.00 | 0.00 | 53 | 1018.4 |
| 20260504030032 | 20 | 146 | 12.9 | 16.1 | 0.00 | 0.00 | 0.00 | 52 | 1018.5 |
| 20260504024529 | 20 | 155 | 11.3 | 17.7 | 0.00 | 0.00 | 0.00 | 52 | 1018.5 |
| 20260504023029 | 20 | 360 | 11.3 | 20.9 | 0.00 | 0.00 | 0.00 | 51 | 1018.6 |
| 20260504021527 | 20 | 159 | 12.9 | 17.7 | 0.00 | 0.00 | 0.00 | 50 | 1018.2 |
| 20260504020027 | 21 | 148 | 9.7 | 19.3 | 0.00 | 0.00 | 0.00 | 49 | 1018.0 |
| 20260504014536 | 21 | 360 | 11.3 | 17.7 | 0.00 | 0.00 | 0.00 | 47 | 1017.8 |
| 20260504013025 | 21 | 159 | 11.3 | 22.5 | 0.00 | 0.00 | 0.00 | 46 | 1017.6 |
| 20260504011526 | 22 | 170 | 12.9 | 19.3 | 0.00 | 0.00 | 0.00 | 43 | 1017.5 |
| 20260504010026 | 23 | 160 | 9.7 | 16.1 | 0.00 | 0.00 | 0.00 | 41 | 1017.5 |
| 20260504004522 | 23 | 150 | 8.0 | 16.1 | 0.00 | 0.00 | 0.00 | 39 | 1017.5 |
| 20260504003026 | 24 | 157 | 6.4 | 12.9 | 0.00 | 0.00 | 0.00 | 38 | 1017.6 |
| 20260504001520 | 25 | 173 | 8.0 | 19.3 | 0.00 | 0.00 | 0.00 | 36 | 1017.8 |
| 20260504000019 | 25 | 159 | 11.3 | 19.3 | 0.00 | 0.00 | 0.00 | 34 | 1017.7 |
| 20260503234519 | 25 | 150 | 11.3 | 19.3 | 0.00 | 0.00 | 0.00 | 33 | 1017.7 |
| 20260503233017 | 26 | 360 | 11.3 | 22.5 | 0.00 | 0.00 | 0.00 | 33 | 1017.7 |
| 20260503231518 | 26 | 178 | 9.7 | 17.7 | 0.00 | 0.00 | 0.00 | 32 | 1017.7 |
| 20260503230015 | 26 | 169 | 11.3 | 16.1 | 0.00 | 0.00 | 0.00 | 32 | 1017.8 |
| 20260503224516 | 26 | 146 | 8.0 | 19.3 | 0.00 | 0.00 | 0.00 | 31 | 1018.0 |
| 20260503223011 | 26 | 146 | 8.0 | 19.3 | 0.00 | 0.00 | 0.00 | 31 | 1018.2 |
| 20260503221511 | 26 | 196 | 8.0 | 17.7 | 0.00 | 0.00 | 0.00 | 30 | 1018.4 |
| 20260503220009 | 26 | 142 | 8.0 | 20.9 | 0.00 | 0.00 | 0.00 | 30 | 1018.5 |
| 20260503214508 | 26 | 142 | 11.3 | 19.3 | 0.00 | 0.00 | 0.00 | 30 | 1018.6 |
| 20260503213004 | 26 | 150 | 8.0 | 24.1 | 0.00 | 0.00 | 0.00 | 30 | 1018.9 |
| 20260503211502 | 26 | 122 | 4.8 | 19.3 | 0.00 | 0.00 | 0.00 | 30 | 1019.1 |
| 20260503210059 | 26 | 151 | 16.1 | 20.9 | 0.00 | 0.00 | 0.00 | 30 | 1019.7 |
| 20260503204603 | 26 | 178 | 6.4 | 19.3 | 0.00 | 0.00 | 0.00 | 31 | 1019.9 |
| 20260503203058 | 27 | 134 | 8.0 | 14.5 | 0.00 | 0.00 | 0.00 | 32 | 1020.3 |
| 20260503201553 | 26 | 110 | 4.8 | 16.1 | 0.00 | 0.00 | 0.00 | 31 | 1020.4 |
| 20260503200050 | 26 | 124 | 12.9 | 22.5 | 0.00 | 0.00 | 0.00 | 32 | 1020.8 |
| 20260503194548 | 26 | 162 | 14.5 | 19.3 | 0.00 | 0.00 | 0.00 | 33 | 1020.8 |
| 20260503193047 | 26 | 169 | 9.7 | 20.9 | 0.00 | 0.00 | 0.00 | 33 | 1021.1 |
| 20260503191541 | 26 | 150 | 11.3 | 22.5 | 0.00 | 0.00 | 0.00 | 34 | 1021.4 |
| 20260503190043 | 26 | 210 | 14.5 | 20.9 | 0.00 | 0.00 | 0.00 | 35 | 1021.7 |
| 20260503184541 | 25 | 142 | 4.8 | 14.5 | 0.00 | 0.00 | 0.00 | 35 | 1021.8 |
| 20260503183037 | 26 | 121 | 11.3 | 17.7 | 0.00 | 0.00 | 0.00 | 37 | 1022.0 |
| 20260503181535 | 25 | 174 | 9.7 | 19.3 | 0.00 | 0.00 | 0.00 | 38 | 1022.2 |
| 20260503180044 | 25 | 187 | 11.3 | 19.3 | 0.00 | 0.00 | 0.00 | 38 | 1022.6 |
| 20260503174534 | 25 | 167 | 9.7 | 16.1 | 0.00 | 0.00 | 0.00 | 38 | 1022.8 |
| 20260503173029 | 25 | 127 | 4.8 | 12.9 | 0.00 | 0.00 | 0.00 | 39 | 1023.1 |
| 20260503171529 | 24 | 171 | 12.9 | 19.3 | 0.00 | 0.00 | 0.00 | 42 | 1023.3 |